{"data":{"norad_id":48564,"intl_designator":"2021-041M","name":"STARLINK-2190","alt_names":[],"object_type":"PAYLOAD","status":"ACTIVE","operator":null,"country":"US","launch_date":"2021-05-15","launch_site_code":"AFETR","launch_vehicle":null,"mission":null,"orbit_class":"UNKNOWN","rcs_meters":null,"size_class":null,"mass_kg":null,"dimensions":null,"purposes":["comms"],"wikipedia_slug":null,"has_3d_model":false,"image_url":null,"decayed_at":null,"tle_current":{"epoch":"2026-05-25T03:57:59.545728Z","epoch_age_seconds":54097,"freshness":"FRESH","line1":"1 48564U 21041M   26145.16527252  .00000899  00000+0  40717-4 0  9991","line2":"2 48564  53.1577 131.0164 0001175  90.8657 269.2479 15.31707730276998","mean_motion":15.3170773,"eccentricity":0.0001175,"inclination_deg":53.1577,"raan_deg":131.0164,"arg_perigee_deg":90.8657,"mean_anomaly_deg":269.2479,"bstar":4.0717e-5,"rev_number":27699,"period_min":94.012713508993,"perigee_km":469.91221225536,"apogee_km":471.52169293422,"semimajor_km":6848.8539525948,"source":"CELESTRAK","updated_at":"2026-05-25T13:38:16.725855Z"}}}